Weather History for K9V9 - August, 2013

Change the Weather History Date:

Wednesday, August 21, 2013

  Actual Average Record
Temperature  
Mean Temperature 80 °F -  
Max Temperature 88 °F 84 °F 95 °F (2010)
Min Temperature 73 °F 58 °F 48 °F (2004)
Cooling Degree Days 16    
Growing Degree Days 30 (Base 50)    
Moisture  
Dew Point 67 °F    
Average Humidity 68    
Maximum Humidity 79    
Minimum Humidity 35    
Precipitation  
Precipitation 0.03 in - - ()
Sea Level Pressure  
Sea Level Pressure 29.87 in    
Wind  
Wind Speed 10 mph (SE)    
Max Wind Speed 24 mph    
Max Gust Speed 31 mph    
Averages and records for this station are not official NWS values.
T = Trace of Precipitation, MM = Missing Value Source: NWS Daily Summary

Daily Weather History Graph

Daily Weather History Graph

Search for Another Location

Airport or City:

Trip Planner

Search our weather history database for the weather conditions in past years. The results will help you decide how hot, cold, wet, or windy it might be!

Date:

Astronomy

Aug. 21, 2013 Rise Set
Actual Time 6:48 AM CDT 8:31 PM CDT
Civil Twilight 6:18 AM CDT 9:01 PM CDT
Nautical Twilight 5:41 AM CDT 9:38 PM CDT
Astronomical Twilight 5:00 AM CDT 10:18 PM CDT
Moon 8:36 PM CDT (8/21) 7:33 AM CDT (8/21)
Length of Visible Light 14h 43m
Length of Day
13h 42m
Waxing Gibbous, 99% of the Moon is Illuminated
Aug 21
Waxing Gibbous
Aug 28
Last Quarter
Sep 5
New
Sep 12
First Quarter
Sep 19
Full

Hourly Weather History & Observations

Time (CDT) Temp. Heat Index Dew Point Humidity Pressure Visibility Wind Dir Wind Speed Gust Speed Precip Events Conditions
12:52 AM 80.1 °F 81.1 °F 61.0 °F 52% 29.82 in - SSW 10.4 mph - 0.03 in   Unknown
1:13 AM 82.4 °F 82.0 °F 57.2 °F 42% 29.87 in - SSW 24.2 mph 31.1 mph N/A   Unknown
1:52 AM 75.9 °F - 61.0 °F 60% 29.77 in - South 9.2 mph - N/A   Unknown
2:52 AM 86.0 °F 84.5 °F 55.0 °F 35% 29.76 in - SW 16.1 mph 26.5 mph N/A   Unknown
3:52 AM 77.0 °F - 64.0 °F 64% 29.76 in - SW 12.7 mph - N/A   Unknown
4:52 AM 75.9 °F - 66.9 °F 74% 29.76 in - Calm Calm - N/A   Unknown
5:52 AM 75.0 °F - 68.0 °F 79% 29.77 in - West 5.8 mph - N/A   Unknown
6:52 AM 75.0 °F - 66.9 °F 76% 29.78 in - NNE 6.9 mph - N/A   Unknown
7:52 AM 75.9 °F - 66.9 °F 74% 29.81 in - Calm Calm - N/A   Unknown
8:52 AM 81.0 °F 83.8 °F 68.0 °F 65% 29.82 in - Calm Calm - N/A   Unknown
9:52 AM 81.0 °F 84.1 °F 69.1 °F 67% 29.84 in - ESE 11.5 mph - N/A   Unknown
10:52 AM 84.0 °F 89.6 °F 72.0 °F 67% 29.88 in - Variable 5.8 mph - N/A   Unknown
11:52 AM 84.9 °F 91.4 °F 73.0 °F 67% 29.90 in - South 6.9 mph - N/A   Unknown
12:52 PM 86.0 °F 93.0 °F 73.0 °F 65% 29.90 in - ESE 9.2 mph - N/A   Unknown
1:52 PM 84.9 °F 91.4 °F 73.0 °F 67% 29.91 in - SE 9.2 mph - N/A   Unknown
2:52 PM 82.9 °F 88.8 °F 73.0 °F 72% 29.91 in - SSE 5.8 mph - N/A   Unknown
3:52 PM 81.0 °F 85.8 °F 73.0 °F 77% 29.94 in - South 3.5 mph - N/A   Unknown
4:52 PM 81.0 °F 84.9 °F 71.1 °F 72% 29.91 in - ESE 6.9 mph - N/A   Unknown
5:52 PM 80.1 °F 84.2 °F 73.0 °F 79% 29.93 in - NE 10.4 mph - N/A   Unknown
6:52 PM 79.0 °F - 72.0 °F 79% 29.95 in - NE 4.6 mph - N/A   Unknown
7:52 PM 75.9 °F - 66.9 °F 74% 29.93 in - East 9.2 mph - N/A   Unknown
8:52 PM 75.0 °F - 64.9 °F 71% 29.94 in - East 8.1 mph - N/A   Unknown
9:52 PM 75.0 °F - 66.9 °F 76% 29.91 in - SSE 4.6 mph - N/A   Unknown
10:52 PM 75.0 °F - 66.9 °F 76% 29.96 in - ENE 11.5 mph - N/A   Unknown
11:52 PM 73.0 °F - 64.0 °F 73% 29.96 in - SE 9.2 mph - N/A   Unknown